^^
Station Historical Data
Daily Summary for August 5, 2021 Units:  English    Metric   Both
Daily Weekly Monthly Yearly
  High: Low: Average:
Temperature: 81.4 °F 68.9 °F 74.5 °F
Dew Point: 70.3 °F 63.8 °F 66.6 °F
Humidity: 90% 61% 77%
Wind Speed: 3mph 0mph 1.5mph
Wind Gust: 5mph - -
Wind- - SSE
Pressure: 30.07 in 29.97 in -
Precipitation: 0.00 in    
 
 
Tabular Data for August 5, 2021
Time Temperature Dew Point Pressure Wind Wind Speed Wind Gust Humidity Rainfall Rate (Hourly) solar
00:00 72.4 °F 66.2 °F 30.05 in NNE 1 mph 1 mph 81% 0.00 in 0 W/m2
00:05 72.3 °F 66.1 °F 30.05 in NE 1 mph 1 mph 81% 0.00 in 0 W/m2
00:10 72.1 °F 65.9 °F 30.05 in WNW 1 mph 1 mph 81% 0.00 in 0 W/m2
00:15 71.9 °F 65.8 °F 30.05 in ENE 1 mph 1 mph 81% 0.00 in 0 W/m2
00:20 71.9 °F 65.8 °F 30.05 in NE 1 mph 1 mph 81% 0.00 in 0 W/m2
00:25 71.8 °F 65.3 °F 30.05 in West 1 mph 1 mph 80% 0.00 in 0 W/m2
00:30 71.8 °F 64.9 °F 30.05 in ENE 1 mph 1 mph 79% 0.00 in 0 W/m2
00:35 71.8 °F 65.3 °F 30.05 in WNW 1 mph 1 mph 80% 0.00 in 0 W/m2
00:40 71.8 °F 64.9 °F 30.05 in ENE 1 mph 1 mph 79% 0.00 in 0 W/m2
00:45 71.7 °F 65.2 °F 30.05 in NE 1 mph 2 mph 80% 0.00 in 0 W/m2
00:50 71.6 °F 64.7 °F 30.05 in NE 1 mph 1 mph 79% 0.00 in 0 W/m2
00:55 71.3 °F 64.4 °F 30.05 in SSW 1 mph 1 mph 79% 0.00 in 0 W/m2
01:00 71.3 °F 64.8 °F 30.05 in East 1 mph 1 mph 80% 0.00 in 0 W/m2
01:05 71.3 °F 64.8 °F 30.04 in NE 1 mph 1 mph 80% 0.00 in 0 W/m2
01:10 71.3 °F 65.2 °F 30.04 in NW 1 mph 1 mph 81% 0.00 in 0 W/m2
01:15 71.2 °F 64.7 °F 30.05 in NNE 1 mph 2 mph 80% 0.00 in 0 W/m2
01:20 71.1 °F 64.3 °F 30.05 in West 1 mph 1 mph 79% 0.00 in 0 W/m2
01:25 71 °F 64.5 °F 30.05 in ESE 1 mph 1 mph 80% 0.00 in 0 W/m2
01:30 71 °F 64.2 °F 30.04 in SE 1 mph 1 mph 79% 0.00 in 0 W/m2
01:35 71 °F 64.5 °F 30.04 in NE 1 mph 1 mph 80% 0.00 in 0 W/m2
01:40 71 °F 64.9 °F 30.05 in East 1 mph 1 mph 81% 0.00 in 0 W/m2
01:45 70.9 °F 64.4 °F 30.05 in NE 1 mph 1 mph 80% 0.00 in 0 W/m2
01:50 70.9 °F 64.4 °F 30.05 in NE 1 mph 1 mph 80% 0.00 in 0 W/m2
01:55 70.8 °F 64.3 °F 30.04 in ESE 1 mph 1 mph 80% 0.00 in 0 W/m2
02:00 70.7 °F 63.9 °F 30.04 in NE 1 mph 1 mph 79% 0.00 in 0 W/m2
02:05 70.7 °F 63.9 °F 30.04 in SE 1 mph 1 mph 79% 0.00 in 0 W/m2
02:10 70.6 °F 63.8 °F 30.04 in ENE 1 mph 1 mph 79% 0.00 in 0 W/m2
02:15 70.6 °F 64.1 °F 30.04 in South 1 mph 1 mph 80% 0.00 in 0 W/m2
02:20 70.6 °F 64.5 °F 30.04 in ENE 1 mph 1 mph 81% 0.00 in 0 W/m2
02:25 70.6 °F 64.5 °F 30.04 in North 1 mph 1 mph 81% 0.00 in 0 W/m2
02:30 70.6 °F 64.5 °F 30.04 in ESE 1 mph 1 mph 81% 0.00 in 0 W/m2
02:35 70.6 °F 64.5 °F 30.04 in East 1 mph 1 mph 81% 0.00 in 0 W/m2
02:40 70.6 °F 64.5 °F 30.04 in ENE 1 mph 1 mph 81% 0.00 in 0 W/m2
02:45 70.4 °F 64.3 °F 30.04 in Calm   1 mph 81% 0.00 in 0 W/m2
02:50 70.3 °F 64.2 °F 30.04 in Calm     81% 0.00 in 0 W/m2
02:55 70.3 °F 64.5 °F 30.04 in Calm   1 mph 82% 0.00 in 0 W/m2
03:00 70.2 °F 64.4 °F 30.04 in Calm   1 mph 82% 0.00 in 0 W/m2
03:05 70.2 °F 64.8 °F 30.04 in NE 1 mph 1 mph 83% 0.00 in 0 W/m2
03:10 70.3 °F 64.9 °F 30.04 in NNW 1 mph 1 mph 83% 0.00 in 0 W/m2
03:15 70.3 °F 64.2 °F 30.04 in East 1 mph 1 mph 81% 0.00 in 0 W/m2
03:20 70.4 °F 64.6 °F 30.04 in NE 1 mph 1 mph 82% 0.00 in 0 W/m2
03:25 70.5 °F 64.7 °F 30.03 in NW 1 mph 1 mph 82% 0.00 in 0 W/m2
03:30 70.4 °F 65 °F 30.04 in ENE 1 mph 1 mph 83% 0.00 in 0 W/m2
03:35 70.5 °F 65.1 °F 30.04 in NNE 1 mph 1 mph 83% 0.00 in 0 W/m2
03:40 70.4 °F 65 °F 30.04 in NE 1 mph 1 mph 83% 0.00 in 0 W/m2
03:45 70.4 °F 65 °F 30.04 in SE 1 mph 1 mph 83% 0.00 in 0 W/m2
03:50 70.2 °F 64.8 °F 30.03 in East 1 mph 1 mph 83% 0.00 in 0 W/m2
03:55 70 °F 64.9 °F 30.03 in North 1 mph 1 mph 84% 0.00 in 0 W/m2
04:00 69.7 °F 64.6 °F 30.03 in NNE 1 mph 1 mph 84% 0.00 in 0 W/m2
04:05 69.6 °F 64.9 °F 30.03 in NE 1 mph 1 mph 85% 0.00 in 0 W/m2
04:10 69.5 °F 64.8 °F 30.03 in NE 1 mph 1 mph 85% 0.00 in 0 W/m2
04:15 69.6 °F 64.9 °F 30.03 in East 1 mph 1 mph 85% 0.00 in 0 W/m2
04:20 69.7 °F 65 °F 30.03 in NE 1 mph 1 mph 85% 0.00 in 0 W/m2
04:25 69.7 °F 65 °F 30.03 in North 1 mph 1 mph 85% 0.00 in 0 W/m2
04:30 69.8 °F 65.1 °F 30.03 in NNE 1 mph 1 mph 85% 0.00 in 0 W/m2
04:35 69.8 °F 64.7 °F 30.03 in ENE 1 mph 1 mph 84% 0.00 in 0 W/m2
04:40 69.8 °F 64.7 °F 30.03 in ENE 1 mph 1 mph 84% 0.00 in 0 W/m2
04:45 69.9 °F 64.5 °F 30.03 in NNE 1 mph 1 mph 83% 0.00 in 0 W/m2
04:50 69.9 °F 64.8 °F 30.03 in NE 1 mph 1 mph 84% 0.00 in 0 W/m2
04:55 70 °F 64.9 °F 30.03 in East 1 mph 1 mph 84% 0.00 in 0 W/m2
05:00 69.9 °F 64.8 °F 30.03 in North 1 mph 1 mph 84% 0.00 in 0 W/m2
05:05 69.6 °F 64.5 °F 30.03 in NE 1 mph 1 mph 84% 0.00 in 0 W/m2
05:10 69.4 °F 64.4 °F 30.03 in NNE 1 mph 2 mph 84% 0.00 in 0 W/m2
05:15 69.3 °F 64.3 °F 30.03 in NNE 1 mph 2 mph 84% 0.00 in 0 W/m2
05:20 69.3 °F 64.6 °F 30.03 in NE 1 mph 1 mph 85% 0.00 in 0 W/m2
05:25 69.3 °F 64.9 °F 30.03 in NNW 1 mph 1 mph 86% 0.00 in 0 W/m2
05:30 69.5 °F 65.1 °F 30.03 in NNE 1 mph 1 mph 86% 0.00 in 0 W/m2
05:35 69.5 °F 65.1 °F 30.03 in NNE 1 mph 1 mph 86% 0.00 in 0 W/m2
05:40 69.5 °F 65.1 °F 30.03 in NNE 1 mph 1 mph 86% 0.00 in 0 W/m2
05:45 69.4 °F 65 °F 30.03 in NNW 1 mph 1 mph 86% 0.00 in 0 W/m2
05:50 69.4 °F 65 °F 30.03 in NE 1 mph 1 mph 86% 0.00 in 0 W/m2
05:55 69.5 °F 65.1 °F 30.03 in ENE 1 mph 1 mph 86% 0.00 in 0 W/m2
06:00 69.5 °F 65.1 °F 30.04 in NE 1 mph 1 mph 86% 0.00 in 0 W/m2
06:05 69.5 °F 65.5 °F 30.04 in NE 1 mph 1 mph 87% 0.00 in 0 W/m2
06:10 69.5 °F 65.5 °F 30.04 in SW 1 mph 2 mph 87% 0.00 in 0 W/m2
06:15 69.5 °F 65.5 °F 30.04 in ENE 1 mph 2 mph 87% 0.00 in 0 W/m2
06:20 69.6 °F 65.6 °F 30.04 in NE 1 mph 1 mph 87% 0.00 in 0 W/m2
06:25 69.6 °F 65.6 °F 30.04 in NE 1 mph 1 mph 87% 0.00 in 5 W/m2
06:30 69.5 °F 65.5 °F 30.04 in NE 1 mph 1 mph 87% 0.00 in 5 W/m2
06:35 69.6 °F 65.9 °F 30.04 in North 1 mph 1 mph 88% 0.00 in 9 W/m2
06:40 69.6 °F 65.9 °F 30.04 in NE 1 mph 1 mph 88% 0.00 in 12 W/m2
06:45 69.6 °F 65.9 °F 30.04 in NE 1 mph 1 mph 88% 0.00 in 16 W/m2
06:50 69.7 °F 66.3 °F 30.04 in Calm     89% 0.00 in 19 W/m2
06:55 69.9 °F 66.5 °F 30.04 in Calm     89% 0.00 in 25 W/m2
07:00 70 °F 66.6 °F 30.04 in Calm   1 mph 89% 0.00 in 30 W/m2
07:05 70 °F 66.6 °F 30.05 in NE 1 mph 1 mph 89% 0.00 in 33 W/m2
07:10 70 °F 66.6 °F 30.05 in North 1 mph 1 mph 89% 0.00 in 37 W/m2
07:15 69.8 °F 66.4 °F 30.05 in NNE 1 mph 1 mph 89% 0.00 in 40 W/m2
07:20 69.6 °F 66.2 °F 30.05 in NE 1 mph 1 mph 89% 0.00 in 46 W/m2
07:25 69.5 °F 66.1 °F 30.05 in East 1 mph 1 mph 89% 0.00 in 49 W/m2
07:30 69.4 °F 65.7 °F 30.05 in NE 1 mph 1 mph 88% 0.00 in 54 W/m2
07:35 69.1 °F 65.4 °F 30.05 in NNE 1 mph 1 mph 88% 0.00 in 60 W/m2
07:40 69.1 °F 65.4 °F 30.05 in West 1 mph 2 mph 88% 0.00 in 63 W/m2
07:45 68.9 °F 65.5 °F 30.06 in NE 1 mph 2 mph 89% 0.00 in 67 W/m2
07:50 69 °F 65.6 °F 30.06 in East 1 mph 1 mph 89% 0.00 in 72 W/m2
07:55 69.3 °F 66.2 °F 30.06 in West 1 mph 2 mph 90% 0.00 in 76 W/m2
08:00 69.4 °F 66.3 °F 30.06 in SW 2 mph 2 mph 90% 0.00 in 81 W/m2
08:06 69.5 °F 66.4 °F 30.06 in SSW 2 mph 3 mph 90% 0.00 in 84 W/m2
08:10 69.7 °F 66.6 °F 30.06 in West 2 mph 2 mph 90% 0.00 in 90 W/m2
08:15 69.9 °F 66.8 °F 30.06 in SSW 2 mph 2 mph 90% 0.00 in 95 W/m2
08:20 70.1 °F 67 °F 30.07 in WSW 2 mph 2 mph 90% 0.00 in 128 W/m2
08:25 70.1 °F 67 °F 30.07 in SW 2 mph 2 mph 90% 0.00 in 179 W/m2
08:30 70.4 °F 67.3 °F 30.07 in SSW 2 mph 2 mph 90% 0.00 in 202 W/m2
08:35 70.5 °F 67.4 °F 30.07 in SE 2 mph 2 mph 90% 0.00 in 214 W/m2
08:40 70.7 °F 67.3 °F 30.07 in SSW 2 mph 2 mph 89% 0.00 in 223 W/m2
08:45 70.9 °F 67.2 °F 30.07 in WSW 2 mph 3 mph 88% 0.00 in 232 W/m2
08:50 71.1 °F 67.4 °F 30.07 in SSW 2 mph 2 mph 88% 0.00 in 244 W/m2
08:55 71.3 °F 67.6 °F 30.07 in SSW 2 mph 2 mph 88% 0.00 in 255 W/m2
09:00 71.3 °F 67.2 °F 30.07 in SW 2 mph 2 mph 87% 0.00 in 267 W/m2
09:05 71.5 °F 67.4 °F 30.07 in SW 2 mph 2 mph 87% 0.00 in 281 W/m2
09:10 71.7 °F 67.3 °F 30.07 in WNW 2 mph 2 mph 86% 0.00 in 297 W/m2
09:15 71.7 °F 67.3 °F 30.07 in South 2 mph 2 mph 86% 0.00 in 309 W/m2
09:20 71.9 °F 67.1 °F 30.07 in South 2 mph 2 mph 85% 0.00 in 323 W/m2
09:25 72 °F 67.2 °F 30.07 in SSW 2 mph 2 mph 85% 0.00 in 343 W/m2
09:30 72.1 °F 67.3 °F 30.07 in WSW 2 mph 2 mph 85% 0.00 in 352 W/m2
09:35 72.2 °F 67.1 °F 30.07 in SW 2 mph 2 mph 84% 0.00 in 362 W/m2
09:40 72.3 °F 66.8 °F 30.07 in SSW 2 mph 2 mph 83% 0.00 in 374 W/m2
09:45 72.4 °F 66.9 °F 30.07 in SSW 2 mph 3 mph 83% 0.00 in 388 W/m2
09:50 72.5 °F 66.7 °F 30.07 in SSW 2 mph 2 mph 82% 0.00 in 392 W/m2
09:55 72.6 °F 66.4 °F 30.07 in WSW 2 mph 2 mph 81% 0.00 in 401 W/m2
10:00 72.7 °F 66.5 °F 30.07 in SSE 2 mph 2 mph 81% 0.00 in 415 W/m2
10:05 72.8 °F 66.6 °F 30.06 in SSE 2 mph 2 mph 81% 0.00 in 431 W/m2
10:10 72.8 °F 66.6 °F 30.06 in South 2 mph 2 mph 81% 0.00 in 446 W/m2
10:15 73 °F 66.8 °F 30.06 in SW 2 mph 3 mph 81% 0.00 in 459 W/m2
10:20 73 °F 66.8 °F 30.06 in SW 2 mph 3 mph 81% 0.00 in 471 W/m2
10:25 73 °F 66.8 °F 30.07 in SW 3 mph 3 mph 81% 0.00 in 478 W/m2
10:30 73 °F 66.8 °F 30.07 in South 3 mph 3 mph 81% 0.00 in 496 W/m2
10:35 73.1 °F 66.9 °F 30.07 in SSW 2 mph 3 mph 81% 0.00 in 508 W/m2
10:40 73.2 °F 67 °F 30.06 in SSW 2 mph 2 mph 81% 0.00 in 517 W/m2
10:45 73.3 °F 67.1 °F 30.06 in SSW 2 mph 2 mph 81% 0.00 in 527 W/m2
10:50 73.3 °F 66.8 °F 30.06 in West 3 mph 3 mph 80% 0.00 in 540 W/m2
10:55 73.4 °F 66.9 °F 30.07 in South 2 mph 3 mph 80% 0.00 in 552 W/m2
11:00 73.6 °F 67.4 °F 30.07 in WSW 2 mph 2 mph 81% 0.00 in 564 W/m2
11:05 73.6 °F 67 °F 30.07 in WSW 2 mph 4 mph 80% 0.00 in 573 W/m2
11:10 73.6 °F 67.4 °F 30.07 in SSW 2 mph 3 mph 81% 0.00 in 584 W/m2
11:15 73.7 °F 67.5 °F 30.07 in SW 2 mph 3 mph 81% 0.00 in 596 W/m2
11:20 73.8 °F 67.6 °F 30.07 in SW 3 mph 3 mph 81% 0.00 in 601 W/m2
11:25 73.9 °F 67.3 °F 30.07 in SW 3 mph 3 mph 80% 0.00 in 615 W/m2
11:30 74 °F 67.4 °F 30.07 in SSW 3 mph 3 mph 80% 0.00 in 621 W/m2
11:35 74.1 °F 67.5 °F 30.07 in SSW 3 mph 3 mph 80% 0.00 in 633 W/m2
11:40 74.1 °F 67.5 °F 30.07 in WNW 3 mph 3 mph 80% 0.00 in 643 W/m2
11:45 74.3 °F 67.4 °F 30.07 in WSW 3 mph 4 mph 79% 0.00 in 650 W/m2
11:50 74.4 °F 67.8 °F 30.07 in SW 2 mph 3 mph 80% 0.00 in 657 W/m2
11:55 74.5 °F 67.6 °F 30.07 in SW 2 mph 4 mph 79% 0.00 in 668 W/m2
12:00 74.6 °F 67.3 °F 30.07 in WNW 2 mph 3 mph 78% 0.00 in 679 W/m2
12:05 74.7 °F 67.8 °F 30.07 in SSW 2 mph 3 mph 79% 0.00 in 687 W/m2
12:10 74.9 °F 67.6 °F 30.07 in SSW 2 mph 3 mph 78% 0.00 in 694 W/m2
12:15 75 °F 67.3 °F 30.07 in South 2 mph 3 mph 77% 0.00 in 701 W/m2
12:20 75.1 °F 67.8 °F 30.07 in SW 2 mph 4 mph 78% 0.00 in 705 W/m2
12:25 74.9 °F 67.6 °F 30.06 in SW 2 mph 4 mph 78% 0.00 in 710 W/m2
12:30 75 °F 67.7 °F 30.06 in SSW 2 mph 5 mph 78% 0.00 in 719 W/m2
12:35 75.2 °F 68.6 °F 30.06 in South 2 mph 5 mph 80% 0.00 in 722 W/m2
12:40 75 °F 68 °F 30.06 in SSW 3 mph 3 mph 79% 0.00 in 729 W/m2
12:45 75.2 °F 68.6 °F 30.06 in South 3 mph 3 mph 80% 0.00 in 733 W/m2
12:50 75.2 °F 68.2 °F 30.06 in SSW 3 mph 4 mph 79% 0.00 in 740 W/m2
12:55 75.5 °F 68.5 °F 30.06 in South 3 mph 4 mph 79% 0.00 in 744 W/m2
13:00 75.7 °F 68.7 °F 30.06 in South 3 mph 3 mph 79% 0.00 in 747 W/m2
13:05 75.6 °F 68.6 °F 30.06 in SSW 3 mph 4 mph 79% 0.00 in 751 W/m2
13:10 76 °F 68.6 °F 30.05 in WSW 2 mph 2 mph 78% 0.00 in 752 W/m2
13:15 76.1 °F 68 °F 30.05 in SSE 2 mph 3 mph 76% 0.00 in 751 W/m2
13:20 76.5 °F 68 °F 30.05 in SW 2 mph 2 mph 75% 0.00 in 759 W/m2
13:25 76.7 °F 67.8 °F 30.05 in SW 2 mph 2 mph 74% 0.00 in 766 W/m2
13:30 76.6 °F 66.5 °F 30.05 in South 2 mph 2 mph 71% 0.00 in 772 W/m2
13:35 76.8 °F 66.7 °F 30.05 in SW 2 mph 2 mph 71% 0.00 in 768 W/m2
13:40 76.7 °F 65.8 °F 30.05 in South 2 mph 2 mph 69% 0.00 in 772 W/m2
13:45 76.9 °F 65.5 °F 30.05 in SSW 2 mph 2 mph 68% 0.00 in 773 W/m2
13:50 76.9 °F 65.1 °F 30.05 in NE 2 mph 2 mph 67% 0.00 in 768 W/m2
13:55 76.9 °F 65.1 °F 30.05 in SE 2 mph 2 mph 67% 0.00 in 772 W/m2
14:00 77.2 °F 65.4 °F 30.04 in West 2 mph 2 mph 67% 0.00 in 772 W/m2
14:05 77.2 °F 66.2 °F 30.04 in SSW 2 mph 2 mph 69% 0.00 in 775 W/m2
14:10 77.4 °F 65.1 °F 30.04 in SW 2 mph 3 mph 66% 0.00 in 772 W/m2
14:15 77.6 °F 66.2 °F 30.04 in SW 2 mph 3 mph 68% 0.00 in 772 W/m2
14:20 77.5 °F 66.5 °F 30.04 in SSW 2 mph 3 mph 69% 0.00 in 766 W/m2
14:25 77.5 °F 66.5 °F 30.04 in SSW 2 mph 3 mph 69% 0.00 in 761 W/m2
14:30 77.7 °F 66.7 °F 30.04 in SSW 2 mph 2 mph 69% 0.00 in 759 W/m2
14:35 78 °F 67.4 °F 30.03 in South 2 mph 2 mph 70% 0.00 in 758 W/m2
14:40 78.2 °F 66.8 °F 30.03 in South 2 mph 2 mph 68% 0.00 in 745 W/m2
14:45 78.2 °F 67.2 °F 30.03 in SSE 3 mph 3 mph 69% 0.00 in 735 W/m2
14:50 78.1 °F 66.7 °F 30.03 in SSW 3 mph 3 mph 68% 0.00 in 731 W/m2
14:55 77.8 °F 66.8 °F 30.03 in SSW 2 mph 3 mph 69% 0.00 in 731 W/m2
15:00 78 °F 66.6 °F 30.03 in SSW 2 mph 4 mph 68% 0.00 in 714 W/m2
15:05 78.4 °F 66.5 °F 30.03 in South 2 mph 4 mph 67% 0.00 in 721 W/m2
15:10 78.6 °F 66.7 °F 30.03 in South 3 mph 3 mph 67% 0.00 in 731 W/m2
15:15 78.8 °F 67.3 °F 30.03 in South 3 mph 3 mph 68% 0.00 in 722 W/m2
15:20 78.6 °F 66.7 °F 30.02 in SSW 2 mph 2 mph 67% 0.00 in 715 W/m2
15:25 78.5 °F 67.1 °F 30.02 in SSW 2 mph 3 mph 68% 0.00 in 719 W/m2
15:30 79 °F 68 °F 30.02 in South 2 mph 2 mph 69% 0.00 in 708 W/m2
15:35 79.1 °F 67.6 °F 30.02 in South 3 mph 5 mph 68% 0.00 in 705 W/m2
15:40 79.2 °F 66.9 °F 30.02 in SSW 3 mph 3 mph 66% 0.00 in 696 W/m2
15:45 79.2 °F 67.7 °F 30.02 in SSW 3 mph 3 mph 68% 0.00 in 694 W/m2
15:50 79.2 °F 67.3 °F 30.02 in SW 3 mph 5 mph 67% 0.00 in 684 W/m2
15:55 79.3 °F 67 °F 30.02 in SSW 3 mph 5 mph 66% 0.00 in 671 W/m2
16:00 79.5 °F 67.1 °F 30.02 in SW 3 mph 3 mph 66% 0.00 in 652 W/m2
16:05 79.6 °F 66.8 °F 30.01 in SW 3 mph 3 mph 65% 0.00 in 642 W/m2
16:10 79.8 °F 67.4 °F 30.01 in SSW 3 mph 3 mph 66% 0.00 in 636 W/m2
16:15 79.8 °F 67 °F 30.01 in SSW 3 mph 3 mph 65% 0.00 in 642 W/m2
16:20 80 °F 67.2 °F 30.01 in SW 3 mph 3 mph 65% 0.00 in 635 W/m2
16:25 80.1 °F 67.3 °F 30.01 in SW 2 mph 3 mph 65% 0.00 in 629 W/m2
16:30 80.2 °F 67.4 °F 30.01 in South 2 mph 2 mph 65% 0.00 in 622 W/m2
16:35 80.4 °F 67.1 °F 30.00 in SSW 2 mph 4 mph 64% 0.00 in 596 W/m2
16:40 80.6 °F 66.8 °F 30.00 in SW 3 mph 3 mph 63% 0.00 in 564 W/m2
16:45 80.8 °F 67 °F 30.00 in WSW 3 mph 3 mph 63% 0.00 in 318 W/m2
16:50 80.8 °F 66.6 °F 30.00 in SSE 2 mph 2 mph 62% 0.00 in 526 W/m2
16:55 80.9 °F 67.1 °F 30.00 in South 2 mph 3 mph 63% 0.00 in 471 W/m2
17:00 81 °F 66.8 °F 30.00 in SW 2 mph 2 mph 62% 0.00 in 496 W/m2
17:05 81.1 °F 66.4 °F 30.00 in West 2 mph 2 mph 61% 0.00 in 496 W/m2
17:10 81.3 °F 67 °F 30.00 in SW 2 mph 3 mph 62% 0.00 in 392 W/m2
17:15 81.4 °F 67.1 °F 29.99 in South 2 mph 3 mph 62% 0.00 in 346 W/m2
17:20 81.4 °F 67.1 °F 29.99 in SSE 1 mph 1 mph 62% 0.00 in 295 W/m2
17:25 81.3 °F 67.5 °F 29.99 in South 2 mph 3 mph 63% 0.00 in 343 W/m2
17:30 81.2 °F 67.4 °F 29.99 in SE 2 mph 2 mph 63% 0.00 in 367 W/m2
17:35 81.1 °F 67.8 °F 29.99 in SW 2 mph 2 mph 64% 0.00 in 461 W/m2
17:40 81.1 °F 67.3 °F 29.99 in WSW 2 mph 2 mph 63% 0.00 in 452 W/m2
17:45 81 °F 67.7 °F 29.99 in SSW 2 mph 3 mph 64% 0.00 in 457 W/m2
17:50 80.9 °F 67.6 °F 29.99 in SW 2 mph 2 mph 64% 0.00 in 411 W/m2
17:55 80.8 °F 67.5 °F 29.99 in SSW 2 mph 2 mph 64% 0.00 in 424 W/m2
18:00 80.8 °F 67.5 °F 29.99 in SSE 2 mph 2 mph 64% 0.00 in 287 W/m2
18:05 80.6 °F 67.3 °F 29.99 in WSW 2 mph 2 mph 64% 0.00 in 186 W/m2
18:10 80.5 °F 67.2 °F 29.99 in South 1 mph 2 mph 64% 0.00 in 181 W/m2
18:15 80.5 °F 67.2 °F 29.99 in West 1 mph 2 mph 64% 0.00 in 251 W/m2
18:20 80.3 °F 67 °F 29.99 in SSW 1 mph 2 mph 64% 0.00 in 167 W/m2
18:25 80.3 °F 67 °F 29.99 in SSW 1 mph 2 mph 64% 0.00 in 271 W/m2
18:30 80.3 °F 67 °F 29.98 in SW 1 mph 1 mph 64% 0.00 in 355 W/m2
18:35 80.3 °F 67 °F 29.98 in SSW 1 mph 1 mph 64% 0.00 in 381 W/m2
18:40 80.3 °F 67 °F 29.98 in SSW 1 mph 1 mph 64% 0.00 in 367 W/m2
18:45 80.3 °F 66.6 °F 29.98 in SSE 1 mph 1 mph 63% 0.00 in 369 W/m2
18:50 80.5 °F 67.6 °F 29.98 in South 2 mph 2 mph 65% 0.00 in 353 W/m2
18:55 80.5 °F 66.7 °F 29.98 in South 2 mph 2 mph 63% 0.00 in 334 W/m2
19:00 80.6 °F 66.8 °F 29.98 in SSW 1 mph 1 mph 63% 0.00 in 320 W/m2
19:05 80.6 °F 67.3 °F 29.98 in East 1 mph 1 mph 64% 0.00 in 281 W/m2
19:10 80.5 °F 67.2 °F 29.98 in South 1 mph 1 mph 64% 0.00 in 171 W/m2
19:15 80.5 °F 68.1 °F 29.98 in NE 1 mph 1 mph 66% 0.00 in 125 W/m2
19:20 80.4 °F 67.6 °F 29.98 in SE 1 mph 1 mph 65% 0.00 in 190 W/m2
19:25 80.3 °F 68.3 °F 29.98 in Calm   1 mph 67% 0.00 in 146 W/m2
19:30 80.3 °F 68.3 °F 29.97 in SE 1 mph 1 mph 67% 0.00 in 81 W/m2
19:35 80.2 °F 68.2 °F 29.97 in SSE 1 mph 1 mph 67% 0.00 in 77 W/m2
19:40 80 °F 68.1 °F 29.97 in East 1 mph 1 mph 67% 0.00 in 69 W/m2
19:45 79.9 °F 68 °F 29.97 in Calm   1 mph 67% 0.00 in 83 W/m2
19:50 79.7 °F 67.8 °F 29.97 in Calm     67% 0.00 in 65 W/m2
19:55 79.5 °F 67.6 °F 29.97 in Calm     67% 0.00 in 49 W/m2
20:00 79.5 °F 68.9 °F 29.97 in Calm     70% 0.00 in 47 W/m2
20:05 79.4 °F 68.8 °F 29.97 in Calm   1 mph 70% 0.00 in 42 W/m2
20:10 79.2 °F 68.1 °F 29.97 in SSE 1 mph 1 mph 69% 0.00 in 37 W/m2
20:15 79.1 °F 68.1 °F 29.97 in SSW 1 mph 1 mph 69% 0.00 in 33 W/m2
20:20 79.1 °F 68.5 °F 29.97 in Calm     70% 0.00 in 28 W/m2
20:25 79 °F 68.4 °F 29.97 in Calm     70% 0.00 in 19 W/m2
20:30 78.9 °F 68.7 °F 29.97 in Calm     71% 0.00 in 16 W/m2
20:35 78.8 °F 69 °F 29.98 in Calm     72% 0.00 in 12 W/m2
20:40 78.6 °F 68.8 °F 29.98 in Calm     72% 0.00 in 9 W/m2
20:45 78.5 °F 68.7 °F 29.97 in Calm   1 mph 72% 0.00 in 7 W/m2
20:50 78.5 °F 69.1 °F 29.98 in NE 1 mph 1 mph 73% 0.00 in 5 W/m2
20:55 78.5 °F 69.9 °F 29.98 in Calm   1 mph 75% 0.00 in 0 W/m2
21:00 78.5 °F 70.3 °F 29.98 in Calm     76% 0.00 in 0 W/m2
21:05 78.4 °F 70.2 °F 29.98 in Calm   1 mph 76% 0.00 in 0 W/m2
21:10 78.2 °F 69.6 °F 29.98 in Calm     75% 0.00 in 0 W/m2
21:15 78 °F 69.4 °F 29.98 in Calm   2 mph 75% 0.00 in 0 W/m2
21:20 77.9 °F 69.3 °F 29.98 in NE 1 mph 2 mph 75% 0.00 in 0 W/m2
21:25 77.8 °F 68 °F 29.98 in NE 1 mph 2 mph 72% 0.00 in 0 W/m2
21:30 77.8 °F 68.4 °F 29.98 in NNE 1 mph 1 mph 73% 0.00 in 0 W/m2
21:35 77.7 °F 68.7 °F 29.98 in NNE 1 mph 2 mph 74% 0.00 in 0 W/m2
21:40 77.8 °F 68.4 °F 29.98 in NE 1 mph 1 mph 73% 0.00 in 0 W/m2
21:45 77.7 °F 68 °F 29.98 in NNE 2 mph 2 mph 72% 0.00 in 0 W/m2
21:50 77.7 °F 67.5 °F 29.98 in NNE 2 mph 2 mph 71% 0.00 in 0 W/m2
21:55 77.6 °F 67.4 °F 29.98 in NNE 2 mph 2 mph 71% 0.00 in 0 W/m2
22:00 77.5 °F 68.2 °F 29.98 in North 2 mph 2 mph 73% 0.00 in 0 W/m2
22:05 77.4 °F 68.1 °F 29.98 in ESE 1 mph 2 mph 73% 0.00 in 0 W/m2
22:10 77.2 °F 67.9 °F 29.98 in NNW 1 mph 1 mph 73% 0.00 in 0 W/m2
22:15 77 °F 68.1 °F 29.98 in ENE 1 mph 1 mph 74% 0.00 in 0 W/m2
22:20 77 °F 68.5 °F 29.98 in NNW 1 mph 1 mph 75% 0.00 in 0 W/m2
22:25 76.7 °F 68.2 °F 29.98 in East 1 mph 2 mph 75% 0.00 in 0 W/m2
22:30 76.4 °F 67.9 °F 29.98 in NE 1 mph 1 mph 75% 0.00 in 0 W/m2
22:35 76.1 °F 68 °F 29.98 in WNW 1 mph 1 mph 76% 0.00 in 0 W/m2
22:40 76 °F 67.9 °F 29.98 in NNE 1 mph 1 mph 76% 0.00 in 0 W/m2
22:45 75.9 °F 68.2 °F 29.98 in ENE 1 mph 1 mph 77% 0.00 in 0 W/m2
22:50 75.9 °F 67.8 °F 29.98 in NE 1 mph 2 mph 76% 0.00 in 0 W/m2
22:55 75.8 °F 68.4 °F 29.98 in NE 1 mph 2 mph 78% 0.00 in 0 W/m2
23:00 75.6 °F 67.5 °F 29.98 in NE 1 mph 1 mph 76% 0.00 in 0 W/m2
23:05 75.3 °F 67.6 °F 29.98 in NE 1 mph 1 mph 77% 0.00 in 0 W/m2
23:10 74.8 °F 67.1 °F 29.98 in NW 1 mph 2 mph 77% 0.00 in 0 W/m2
23:15 74.5 °F 67.6 °F 29.98 in NW 1 mph 3 mph 79% 0.00 in 0 W/m2
23:20 74.3 °F 67.4 °F 29.98 in North 2 mph 2 mph 79% 0.00 in 0 W/m2
23:25 74 °F 67.1 °F 29.98 in NE 2 mph 2 mph 79% 0.00 in 0 W/m2
23:30 73.8 °F 66.9 °F 29.98 in NNW 2 mph 2 mph 79% 0.00 in 0 W/m2
23:35 73.7 °F 67.1 °F 29.98 in NE 1 mph 2 mph 80% 0.00 in 0 W/m2
23:40 73.7 °F 67.5 °F 29.98 in NE 1 mph 1 mph 81% 0.00 in 0 W/m2
23:45 73.5 °F 67.3 °F 29.98 in North 1 mph 1 mph 81% 0.00 in 0 W/m2
Sand Point, Michigan, USA
Compliments of Weather Underground - 2 mb